KLM713 EHAM-SMJP

Flight info

Callsign KLM713
Flight time N/A
Altitude 34000
Route IDRID L980 LOGAN DCT SAM N19 ADKIK DCT JOZMA DCT GAPLI/M084F340 DCT OMOKO DCT 45N020W 38N030W 33N035W 28N040W 24N045W DCT NEZBT/N0498F340 DCT 16N050W 0927N05300W 0730N05400W DCT TODOL
Aircraft B77W/H-SDE1E2E3FGHIJ2J3J4J5M1RWXY/LB1D1

Departure

Time N/A
Airport Amsterdam Airport Schiphol (EHAM)

Arrival

Time 2026-04-25 21:44
Airport Johan Adolf Pengel International Airport (SMJP)
Time Latitude Longitude Altitude Speed Heading
2026-04-25 20:34 12.74081 -51.51403 33979 ft 493 kts 205°
2026-04-25 20:34 12.70953 -51.52833 33974 ft 493 kts 205°
2026-04-25 20:34 12.64686 -51.55699 33976 ft 493 kts 205°
2026-04-25 20:35 12.58425 -51.58559 33976 ft 492 kts 204°
2026-04-25 20:35 12.52170 -51.61416 33974 ft 492 kts 204°
2026-04-25 20:36 12.45912 -51.64273 33975 ft 492 kts 204°
2026-04-25 20:36 12.39701 -51.67106 33971 ft 492 kts 204°
2026-04-25 20:37 12.33447 -51.69957 33972 ft 493 kts 205°
2026-04-25 20:37 12.27179 -51.72814 33973 ft 494 kts 204°
2026-04-25 20:38 12.21965 -51.75188 33974 ft 494 kts 205°
2026-04-25 20:38 12.14677 -51.78506 33975 ft 493 kts 205°
2026-04-25 20:39 12.08408 -51.81360 33978 ft 492 kts 204°
2026-04-25 20:39 12.04221 -51.83264 33971 ft 492 kts 204°
2026-04-25 20:40 11.96952 -51.86568 33967 ft 492 kts 204°
2026-04-25 20:40 11.89691 -51.89868 33971 ft 492 kts 204°
2026-04-25 20:41 11.83439 -51.92707 33966 ft 492 kts 204°
2026-04-25 20:41 11.77185 -51.95545 33969 ft 492 kts 204°
2026-04-25 20:42 11.71987 -51.97904 33974 ft 491 kts 204°
2026-04-25 20:42 11.65738 -52.00737 33973 ft 491 kts 204°
2026-04-25 20:43 11.58479 -52.04027 33972 ft 491 kts 204°
2026-04-25 20:43 11.53285 -52.06380 33968 ft 492 kts 204°
2026-04-25 20:44 11.47034 -52.09210 33966 ft 492 kts 204°
2026-04-25 20:44 11.40783 -52.12039 33964 ft 492 kts 204°
2026-04-25 20:45 11.34527 -52.14869 33970 ft 492 kts 204°
2026-04-25 20:45 11.28274 -52.17696 33971 ft 491 kts 204°
2026-04-25 20:46 11.22063 -52.20503 33968 ft 491 kts 204°
2026-04-25 20:46 11.15814 -52.23326 33966 ft 491 kts 204°
2026-04-25 20:47 11.09564 -52.26148 33966 ft 492 kts 204°
2026-04-25 20:47 11.03312 -52.28969 33955 ft 492 kts 203°
2026-04-25 20:48 10.97091 -52.31776 33961 ft 493 kts 204°
2026-04-25 20:48 10.90821 -52.34602 33965 ft 493 kts 203°
2026-04-25 20:49 10.84548 -52.37429 33960 ft 493 kts 204°
2026-04-25 20:49 10.78274 -52.40255 33963 ft 492 kts 203°
2026-04-25 20:50 10.72045 -52.43060 33960 ft 493 kts 203°
2026-04-25 20:50 10.65770 -52.45884 33958 ft 493 kts 203°
2026-04-25 20:51 10.59498 -52.48705 33952 ft 493 kts 203°
2026-04-25 20:51 10.53226 -52.51525 33956 ft 493 kts 203°
2026-04-25 20:52 10.48015 -52.53867 33964 ft 493 kts 203°
2026-04-25 20:52 10.40713 -52.57148 33958 ft 494 kts 203°
2026-04-25 20:53 10.34424 -52.59972 33959 ft 493 kts 203°
2026-04-25 20:53 10.28149 -52.62788 33957 ft 493 kts 203°
2026-04-25 20:54 10.21913 -52.65585 33954 ft 493 kts 203°
2026-04-25 20:54 10.15636 -52.68401 33955 ft 494 kts 202°
2026-04-25 20:55 10.09342 -52.71222 33955 ft 495 kts 203°
2026-04-25 20:55 10.03051 -52.74041 33951 ft 496 kts 202°
2026-04-25 20:56 9.96741 -52.76867 33951 ft 495 kts 202°
2026-04-25 20:56 9.90482 -52.79670 33952 ft 495 kts 202°
2026-04-25 20:57 9.84170 -52.82494 33953 ft 497 kts 202°
2026-04-25 20:57 9.77837 -52.85327 33950 ft 498 kts 203°
2026-04-25 20:58 9.71494 -52.88163 33942 ft 499 kts 202°
2026-04-25 20:58 9.65190 -52.90981 33950 ft 498 kts 202°
2026-04-25 20:59 9.58831 -52.93822 33952 ft 501 kts 202°
2026-04-25 20:59 9.52446 -52.96674 33951 ft 503 kts 202°
2026-04-25 21:00 9.47118 -52.99054 33943 ft 504 kts 201°
2026-04-25 21:01 9.36641 -53.04240 33944 ft 504 kts 205°
2026-04-25 21:01 9.30402 -53.07500 33942 ft 505 kts 205°
2026-04-25 21:02 9.24157 -53.10740 33943 ft 504 kts 205°
2026-04-25 21:02 9.17905 -53.13965 33939 ft 504 kts 205°
2026-04-25 21:03 9.11694 -53.17160 33937 ft 504 kts 205°
2026-04-25 21:03 9.05448 -53.20373 33939 ft 503 kts 205°
2026-04-25 21:04 8.99214 -53.23580 33935 ft 502 kts 205°
2026-04-25 21:04 8.92993 -53.26779 33939 ft 501 kts 205°
2026-04-25 21:05 8.86815 -53.29955 33944 ft 502 kts 205°
2026-04-25 21:05 8.80583 -53.33157 33943 ft 503 kts 205°
2026-04-25 21:06 8.74334 -53.36367 33939 ft 504 kts 205°
2026-04-25 21:06 8.68080 -53.39578 33941 ft 504 kts 205°
2026-04-25 21:07 8.61861 -53.42771 33940 ft 505 kts 205°
2026-04-25 21:07 8.55601 -53.45983 33938 ft 505 kts 205°
2026-04-25 21:08 8.49344 -53.49192 33941 ft 504 kts 205°
2026-04-25 21:08 8.43098 -53.52395 33936 ft 503 kts 205°
2026-04-25 21:09 8.33758 -53.57182 33930 ft 501 kts 205°
2026-04-25 21:09 8.27583 -53.60345 33935 ft 501 kts 205°
2026-04-25 21:10 8.21369 -53.63527 33935 ft 501 kts 205°
2026-04-25 21:10 8.15140 -53.66716 33939 ft 503 kts 205°
2026-04-25 21:11 8.08890 -53.69914 33932 ft 504 kts 205°
2026-04-25 21:11 8.02670 -53.73096 33932 ft 505 kts 205°
2026-04-25 21:12 7.96398 -53.76303 33939 ft 505 kts 205°
2026-04-25 21:12 7.91184 -53.78968 33932 ft 506 kts 205°
2026-04-25 21:13 7.83847 -53.82718 33927 ft 506 kts 205°
2026-04-25 21:13 7.77606 -53.85906 33930 ft 506 kts 204°
2026-04-25 21:14 7.71317 -53.89118 33928 ft 507 kts 205°
2026-04-25 21:14 7.65032 -53.92327 33928 ft 507 kts 205°
2026-04-25 21:15 7.58733 -53.95543 33931 ft 508 kts 205°
2026-04-25 21:15 7.52423 -53.98762 33928 ft 509 kts 205°
2026-04-25 21:16 7.46185 -54.02030 33923 ft 509 kts 206°
2026-04-25 21:16 7.40012 -54.05537 33927 ft 509 kts 207°
2026-04-25 21:17 7.33856 -54.09072 33926 ft 509 kts 207°
2026-04-25 21:17 7.27684 -54.12573 33924 ft 509 kts 207°
2026-04-25 21:18 7.21545 -54.16031 33923 ft 509 kts 207°
2026-04-25 21:18 7.15366 -54.19504 33925 ft 509 kts 207°
2026-04-25 21:19 7.09187 -54.22979 33927 ft 509 kts 207°
2026-04-25 21:19 7.03009 -54.26454 33927 ft 508 kts 207°
2026-04-25 21:20 6.97878 -54.29339 33925 ft 508 kts 207°
2026-04-25 21:20 6.93821 -54.31621 33909 ft 497 kts 207°
2026-04-25 21:20 6.90843 -54.33298 33779 ft 486 kts 207°
2026-04-25 21:21 6.87902 -54.34952 33219 ft 482 kts 207°
2026-04-25 21:21 6.84991 -54.36587 32712 ft 477 kts 207°
2026-04-25 21:21 6.82111 -54.38205 32195 ft 472 kts 207°
2026-04-25 21:21 6.79290 -54.39790 31691 ft 468 kts 207°
2026-04-25 21:22 6.76462 -54.41378 31180 ft 464 kts 207°
2026-04-25 21:22 6.73651 -54.42956 30665 ft 461 kts 207°
2026-04-25 21:22 6.70859 -54.44524 30149 ft 458 kts 207°
2026-04-25 21:22 6.68089 -54.46079 29577 ft 455 kts 207°
2026-04-25 21:23 6.65331 -54.47627 29021 ft 452 kts 207°
2026-04-25 21:23 6.62598 -54.49161 28492 ft 448 kts 207°
2026-04-25 21:23 6.59887 -54.50683 27976 ft 444 kts 207°
2026-04-25 21:23 6.57199 -54.52192 27458 ft 441 kts 207°
2026-04-25 21:24 6.54567 -54.53668 26983 ft 438 kts 207°
2026-04-25 21:24 6.51914 -54.55157 26475 ft 435 kts 207°
2026-04-25 21:24 6.49282 -54.56633 25991 ft 432 kts 207°
2026-04-25 21:24 6.46665 -54.58102 25473 ft 430 kts 207°
2026-04-25 21:25 6.44057 -54.59564 24981 ft 428 kts 207°
2026-04-25 21:25 6.42336 -54.60529 24649 ft 427 kts 207°
2026-04-25 21:25 6.38873 -54.62471 23994 ft 425 kts 207°
2026-04-25 21:25 6.36298 -54.63914 23503 ft 423 kts 207°
2026-04-25 21:26 6.33729 -54.65354 22936 ft 422 kts 207°
2026-04-25 21:26 6.31211 -54.66766 22438 ft 419 kts 207°
2026-04-25 21:26 6.28675 -54.68188 21945 ft 415 kts 207°
2026-04-25 21:26 6.26163 -54.69596 21465 ft 412 kts 207°
2026-04-25 21:27 6.23667 -54.70995 20990 ft 409 kts 207°
2026-04-25 21:27 6.21184 -54.72386 20512 ft 407 kts 207°
2026-04-25 21:27 6.18719 -54.73767 20056 ft 405 kts 207°
2026-04-25 21:27 6.16263 -54.75143 19567 ft 403 kts 207°
2026-04-25 21:28 6.13822 -54.76511 19102 ft 401 kts 207°
2026-04-25 21:28 6.11420 -54.77856 18628 ft 400 kts 207°
2026-04-25 21:28 6.08997 -54.79213 18161 ft 398 kts 207°
2026-04-25 21:28 6.06583 -54.80565 17620 ft 397 kts 207°
2026-04-25 21:29 6.04192 -54.81931 17132 ft 395 kts 210°
2026-04-25 21:29 6.01990 -54.83580 16653 ft 395 kts 219°
2026-04-25 21:29 6.00048 -54.85523 16187 ft 394 kts 227°
2026-04-25 21:29 5.98376 -54.87698 15743 ft 392 kts 232°
2026-04-25 21:30 5.96773 -54.89907 15269 ft 390 kts 232°
2026-04-25 21:30 5.95180 -54.92103 14827 ft 388 kts 232°
2026-04-25 21:30 5.93616 -54.94254 14393 ft 385 kts 232°
2026-04-25 21:30 5.92551 -54.95715 14105 ft 383 kts 232°
2026-04-25 21:31 5.90474 -54.98553 13515 ft 379 kts 231°
2026-04-25 21:31 5.88917 -55.00676 13030 ft 376 kts 231°
2026-04-25 21:31 5.87368 -55.02784 12553 ft 373 kts 231°
2026-04-25 21:31 5.85833 -55.04871 12086 ft 371 kts 231°
2026-04-25 21:32 5.84304 -55.06949 11627 ft 368 kts 232°
2026-04-25 21:32 5.82787 -55.09011 11177 ft 366 kts 231°
2026-04-25 21:32 5.81280 -55.11059 10726 ft 364 kts 232°
2026-04-25 21:32 5.79782 -55.13094 10288 ft 362 kts 232°
2026-04-25 21:33 5.78308 -55.15095 9862 ft 360 kts 232°
2026-04-25 21:33 5.76842 -55.17089 9382 ft 345 kts 232°
2026-04-25 21:33 5.75469 -55.18957 8973 ft 321 kts 231°
2026-04-25 21:33 5.74182 -55.20709 8685 ft 309 kts 231°
2026-04-25 21:34 5.72892 -55.22457 8462 ft 314 kts 231°
2026-04-25 21:34 5.71586 -55.24228 8214 ft 316 kts 231°
2026-04-25 21:34 5.70280 -55.26000 7945 ft 314 kts 231°
2026-04-25 21:34 5.69009 -55.27727 7631 ft 302 kts 231°
2026-04-25 21:35 5.67783 -55.29394 7295 ft 292 kts 231°
2026-04-25 21:35 5.66586 -55.31019 6959 ft 288 kts 231°
2026-04-25 21:35 5.65406 -55.32619 6662 ft 289 kts 231°
2026-04-25 21:35 5.64234 -55.34211 6323 ft 277 kts 231°
2026-04-25 21:36 5.63107 -55.35741 6011 ft 269 kts 231°
2026-04-25 21:36 5.62009 -55.37232 5716 ft 265 kts 231°
2026-04-25 21:36 5.60915 -55.38715 5433 ft 264 kts 231°
2026-04-25 21:36 5.59827 -55.40190 5136 ft 262 kts 231°
2026-04-25 21:37 5.58744 -55.41660 4854 ft 261 kts 231°
2026-04-25 21:37 5.58031 -55.42626 4682 ft 261 kts 231°
2026-04-25 21:37 5.56460 -55.44414 4235 ft 250 kts 208°
2026-04-25 21:37 5.54882 -55.44914 3949 ft 238 kts 177°
2026-04-25 21:38 5.53297 -55.44618 3690 ft 228 kts 155°
2026-04-25 21:38 5.51968 -55.43848 3463 ft 215 kts 135°
2026-04-25 21:38 5.50927 -55.42819 3332 ft 204 kts 131°
2026-04-25 21:38 5.49945 -55.41783 3176 ft 208 kts 131°
2026-04-25 21:39 5.48952 -55.40744 3086 ft 203 kts 131°
2026-04-25 21:39 5.47981 -55.39736 3032 ft 200 kts 131°
2026-04-25 21:39 5.47025 -55.38747 3013 ft 197 kts 131°
2026-04-25 21:39 5.46092 -55.37787 2974 ft 188 kts 131°
2026-04-25 21:40 5.45421 -55.36727 2744 ft 178 kts 100°
2026-04-25 21:40 5.45301 -55.35516 2665 ft 175 kts 94°
2026-04-25 21:40 5.45222 -55.34283 2636 ft 176 kts 92°
2026-04-25 21:40 5.45203 -55.33037 2408 ft 179 kts 90°
2026-04-25 21:41 5.45206 -55.31811 2202 ft 172 kts 90°
2026-04-25 21:41 5.45214 -55.30647 1967 ft 160 kts 90°
2026-04-25 21:41 5.45219 -55.29547 1765 ft 156 kts 88°
2026-04-25 21:41 5.45226 -55.28491 1591 ft 148 kts 89°
2026-04-25 21:42 5.45233 -55.27502 1378 ft 134 kts 90°
2026-04-25 21:42 5.45237 -55.26571 1248 ft 134 kts 87°
2026-04-25 21:42 5.45243 -55.25629 1047 ft 134 kts 88°
2026-04-25 21:42 5.45249 -55.24694 880 ft 135 kts 88°
2026-04-25 21:43 5.45259 -55.23739 712 ft 139 kts 88°
2026-04-25 21:43 5.45259 -55.22762 566 ft 142 kts 85°
2026-04-25 21:43 5.45280 -55.21772 384 ft 142 kts 88°
2026-04-25 21:43 5.45275 -55.20800 193 ft 140 kts 86°
2026-04-25 21:44 5.45281 -55.19837 64 ft 133 kts 88°
2026-04-25 21:44 5.45285 -55.19031 59 ft 94 kts 89°
2026-04-25 21:44 5.45290 -55.18264 61 ft 33 kts 90°
2026-04-25 21:45 5.45291 -55.18043 69 ft 34 kts 89°
2026-04-25 21:45 5.45295 -55.17867 68 ft 41 kts 89°
2026-04-25 21:45 5.45297 -55.17552 63 ft 20 kts 89°
2026-04-25 21:45 5.45337 -55.17453 59 ft 16 kts 46°
2026-04-25 21:46 5.45428 -55.17366 57 ft 20 kts 48°
2026-04-25 21:46 5.45456 -55.17249 62 ft 15 kts 110°
2026-04-25 21:46 5.45371 -55.17211 66 ft 15 kts 186°
2026-04-25 21:46 5.45296 -55.17281 60 ft 20 kts 261°
2026-04-25 21:47 5.45304 -55.17463 66 ft 30 kts 268°
2026-04-25 21:47 5.45297 -55.17673 63 ft 30 kts 269°
2026-04-25 21:47 5.45293 -55.17888 71 ft 33 kts 269°
2026-04-25 21:47 5.45291 -55.18137 66 ft 37 kts 270°
2026-04-25 21:48 5.45290 -55.18387 58 ft 37 kts 269°
2026-04-25 21:48 5.45288 -55.18635 56 ft 36 kts 269°
2026-04-25 21:48 5.45287 -55.18885 58 ft 35 kts 270°
2026-04-25 21:48 5.45286 -55.19120 60 ft 33 kts 269°
2026-04-25 21:49 5.45283 -55.19343 63 ft 31 kts 269°
2026-04-25 21:49 5.45281 -55.19542 64 ft 25 kts 269°
2026-04-25 21:49 5.45282 -55.19687 62 ft 12 kts 276°
2026-04-25 21:49 5.45343 -55.19728 67 ft 11 kts 355°
2026-04-25 21:50 5.45415 -55.19737 70 ft 10 kts 341°
2026-04-25 21:50 5.45444 -55.19784 65 ft 7 kts 286°
2026-04-25 21:50 5.45459 -55.19800 60 ft 3 kts 330°
2026-04-25 21:50 5.45475 -55.19805 65 ft 4 kts 347°
2026-04-25 21:51 5.45491 -55.19805 61 ft 3 kts
2026-04-25 21:51 5.45505 -55.19804 62 ft 3 kts
2026-04-25 21:51 5.45516 -55.19804 62 ft 0 kts
2026-04-25 21:53 5.45515 -55.19794 68 ft 0 kts 88°